Date,TemperatureHighF,TemperatureAvgF,TemperatureLowF,DewpointHighF,DewpointAvgF,DewpointLowF,HumidityHigh,HumidityAvg,HumidityLow,PressureMaxIn,PressureMinIn,WindSpeedMaxMPH,WindSpeedAvgMPH,GustSpeedMaxMPH,PrecipitationSumIn
2013-1-1,72.0,57.6,48.0,49.0,44.7,37.0,83,64,40,0.00,40.00,13,8,24,0.01
2013-1-2,66.0,55.5,44.0,49.0,37.9,21.0,74,52,28,0.00,40.00,13,8,26,0.00
2013-1-3,70.0,55.9,44.0,48.0,29.0,10.0,60,37,18,0.00,40.00,13,8,26,0.00
2013-1-4,66.0,54.1,49.0,54.0,48.1,40.0,95,81,58,0.00,40.00,16,12,28,0.14
2013-1-5,62.0,50.9,45.0,53.0,45.9,41.0,94,84,58,0.00,40.00,14,10,31,0.18
2013-1-6,65.0,52.9,48.0,54.0,48.6,42.0,95,86,55,0.00,40.00,12,8,22,0.18
2013-1-7,71.0,56.1,50.0,53.0,41.0,17.0,96,65,22,0.00,40.00,12,8,21,0.13
2013-1-8,70.0,56.4,46.0,53.0,36.2,17.0,87,50,27,0.00,40.00,12,8,21,0.01
2013-1-9,71.0,57.2,49.0,54.0,49.3,46.0,95,77,47,0.00,40.00,10,7,19,0.03
2013-1-10,66.0,54.3,43.0,52.0,43.3,38.0,95,68,46,0.00,40.00,12,8,23,0.03
2013-1-11,71.0,55.0,43.0,53.0,44.0,31.0,96,69,37,0.00,40.00,11,5,21,0.19
2013-1-12,67.0,51.3,39.0,55.0,47.1,38.0,98,88,49,0.00,40.00,8,4,14,0.11
2013-1-13,68.0,56.0,47.0,58.0,51.0,43.0,98,85,63,0.00,40.00,8,3,15,0.42
2013-1-14,69.0,54.7,44.0,57.0,48.9,38.0,97,82,59,0.00,40.00,10,5,18,0.01
2013-1-15,69.0,54.1,42.0,59.0,50.0,39.0,98,87,56,0.00,40.00,7,4,12,0.67
2013-1-16,68.0,55.8,47.0,57.0,52.9,46.0,98,92,65,0.00,40.00,7,4,12,0.18
2013-1-17,64.0,52.1,41.0,53.0,48.7,40.0,99,89,66,0.00,40.00,7,4,13,0.04
2013-1-18,65.0,50.8,39.0,53.0,46.0,38.0,98,86,56,0.00,40.00,5,3,11,0.01
2013-1-19,66.0,49.7,36.0,52.0,38.9,14.0,96,71,31,0.00,40.00,8,4,14,0.00
2013-1-20,70.0,52.7,36.0,54.0,35.0,16.0,93,56,13,0.00,40.00,9,4,21,0.00
2013-1-21,77.0,60.1,41.0,52.0,33.1,10.0,70,39,15,0.00,40.00,15,9,31,0.00
2013-1-22,78.0,63.0,54.0,45.0,29.5,19.0,72,30,18,0.00,40.00,15,11,34,0.00
2013-1-23,72.0,58.2,42.0,55.0,35.5,22.0,93,47,17,0.00,40.00,10,5,17,0.00
2013-1-24,62.0,52.1,42.0,53.0,47.1,36.0,96,84,55,0.00,40.00,5,3,11,0.02
2013-1-25,64.0,53.0,39.0,54.0,49.5,37.0,97,89,65,0.00,40.00,7,2,12,0.03
2013-1-26,64.0,48.5,35.0,51.0,43.6,34.0,96,85,58,0.00,40.00,7,4,16,0.01
2013-1-27,60.0,50.1,41.0,58.0,48.5,40.0,97,94,87,0.00,40.00,7,4,13,0.07
2013-1-28,65.0,49.4,36.0,54.0,45.7,35.0,98,88,67,0.00,40.00,7,4,14,0.01
2013-1-29,60.0,53.5,48.0,56.0,52.0,47.0,98,96,87,0.00,40.00,6,4,15,0.70
2013-1-30,66.0,55.7,51.0,58.0,53.4,50.0,98,93,70,0.00,40.00,8,4,16,0.57
2013-1-31,65.0,55.0,45.0,57.0,49.8,43.0,98,84,74,0.00,40.00,10,5,16,0.02